Year,Month,Day,Hour,Minute,Value (Times are PST for windspeed in km/hr)
2015,08,28,00,00,0.00
2015,08,28,00,01,0.00
2015,08,28,00,02,0.00
2015,08,28,00,03,0.00
2015,08,28,00,04,0.00
2015,08,28,00,05,0.30
2015,08,28,00,06,0.30
2015,08,28,00,07,0.10
2015,08,28,00,08,0.00
2015,08,28,00,09,0.00
2015,08,28,00,10,0.00
2015,08,28,00,11,0.00
2015,08,28,00,12,0.00
2015,08,28,00,13,0.00
2015,08,28,00,14,0.00
2015,08,28,00,15,0.00
2015,08,28,00,16,0.00
2015,08,28,00,17,0.10
2015,08,28,00,18,0.00
2015,08,28,00,19,0.00
2015,08,28,00,20,0.00
2015,08,28,00,21,0.00
2015,08,28,00,22,0.00
2015,08,28,00,23,0.00
2015,08,28,00,24,0.00
2015,08,28,00,25,0.00
2015,08,28,00,26,0.00
2015,08,28,00,27,0.00
2015,08,28,00,28,0.00
2015,08,28,00,29,0.00
2015,08,28,00,30,0.00
2015,08,28,00,31,0.00
2015,08,28,00,32,0.00
2015,08,28,00,33,0.00
2015,08,28,00,34,0.00
2015,08,28,00,35,0.00
2015,08,28,00,36,0.00
2015,08,28,00,37,0.10
2015,08,28,00,38,0.00
2015,08,28,00,39,0.00
2015,08,28,00,40,0.00
2015,08,28,00,41,0.00
2015,08,28,00,42,0.00
2015,08,28,00,43,0.00
2015,08,28,00,44,0.00
2015,08,28,00,45,0.00
2015,08,28,00,46,0.00
2015,08,28,00,47,0.00
2015,08,28,00,48,0.00
2015,08,28,00,49,0.20
2015,08,28,00,50,0.90
2015,08,28,00,51,1.30
2015,08,28,00,52,1.20
2015,08,28,00,53,1.20
2015,08,28,00,54,0.70
2015,08,28,00,55,0.70
2015,08,28,00,56,0.30
2015,08,28,00,57,0.00
2015,08,28,00,58,0.00
2015,08,28,00,59,0.00
2015,08,28,01,00,0.00
2015,08,28,01,01,0.00
2015,08,28,01,02,0.00
2015,08,28,01,03,0.00
2015,08,28,01,04,0.00
2015,08,28,01,05,0.00
2015,08,28,01,06,0.00
2015,08,28,01,07,0.00
2015,08,28,01,08,0.00
2015,08,28,01,09,0.00
2015,08,28,01,10,0.00
2015,08,28,01,11,0.00
2015,08,28,01,12,0.00
2015,08,28,01,13,0.00
2015,08,28,01,14,0.00
2015,08,28,01,15,0.00
2015,08,28,01,16,0.00
2015,08,28,01,17,0.00
2015,08,28,01,18,0.00
2015,08,28,01,19,0.00
2015,08,28,01,20,0.00
2015,08,28,01,21,0.00
2015,08,28,01,22,0.80
2015,08,28,01,23,1.30
2015,08,28,01,24,1.50
2015,08,28,01,25,0.90
2015,08,28,01,26,0.20
2015,08,28,01,27,0.00
2015,08,28,01,28,0.80
2015,08,28,01,29,1.40
2015,08,28,01,30,0.40
2015,08,28,01,31,0.00
2015,08,28,01,32,0.00
2015,08,28,01,33,0.00
2015,08,28,01,34,0.00
2015,08,28,01,35,0.00
2015,08,28,01,36,0.00
2015,08,28,01,37,0.50
2015,08,28,01,38,0.00
2015,08,28,01,39,0.00
2015,08,28,01,40,0.10
2015,08,28,01,41,0.60
2015,08,28,01,42,1.10
2015,08,28,01,43,1.30
2015,08,28,01,44,2.30
2015,08,28,01,45,4.50
2015,08,28,01,46,1.60
2015,08,28,01,47,0.00
2015,08,28,01,48,0.00
2015,08,28,01,49,0.00
2015,08,28,01,50,0.50
2015,08,28,01,51,0.00
2015,08,28,01,52,0.00
2015,08,28,01,53,0.50
2015,08,28,01,54,0.20
2015,08,28,01,55,0.10
2015,08,28,01,56,0.20
2015,08,28,01,57,0.10
2015,08,28,01,58,0.30
2015,08,28,01,59,1.00
2015,08,28,02,00,2.80
2015,08,28,02,01,2.20
2015,08,28,02,02,1.50
2015,08,28,02,03,0.20
2015,08,28,02,04,0.90
2015,08,28,02,05,0.40
2015,08,28,02,06,0.60
2015,08,28,02,07,3.70
2015,08,28,02,08,2.90
2015,08,28,02,09,1.50
2015,08,28,02,10,2.80
2015,08,28,02,11,1.00
2015,08,28,02,12,1.10
2015,08,28,02,13,2.20
2015,08,28,02,14,2.40
2015,08,28,02,15,0.80
2015,08,28,02,16,1.20
2015,08,28,02,17,1.00
2015,08,28,02,18,0.40
2015,08,28,02,19,4.80
2015,08,28,02,20,11.90
2015,08,28,02,21,10.60
2015,08,28,02,22,7.40
2015,08,28,02,23,6.40
2015,08,28,02,24,4.90
2015,08,28,02,25,4.80
2015,08,28,02,26,10.50
2015,08,28,02,27,12.00
2015,08,28,02,28,8.20
2015,08,28,02,29,5.70
2015,08,28,02,30,3.70
2015,08,28,02,31,10.80
2015,08,28,02,32,12.80
2015,08,28,02,33,10.70
2015,08,28,02,34,8.90
2015,08,28,02,35,11.60
2015,08,28,02,36,18.80
2015,08,28,02,37,14.20
2015,08,28,02,38,9.80
2015,08,28,02,39,10.60
2015,08,28,02,40,10.90
2015,08,28,02,41,7.40
2015,08,28,02,42,12.50
2015,08,28,02,43,13.30
2015,08,28,02,44,11.30
2015,08,28,02,45,12.30
2015,08,28,02,46,8.30
2015,08,28,02,47,10.00
2015,08,28,02,48,10.20
2015,08,28,02,49,11.80
2015,08,28,02,50,5.20
2015,08,28,02,51,9.40
2015,08,28,02,52,8.10
2015,08,28,02,53,6.10
2015,08,28,02,54,9.00
2015,08,28,02,55,7.70
2015,08,28,02,56,5.70
2015,08,28,02,57,4.10
2015,08,28,02,58,8.30
2015,08,28,02,59,6.40
2015,08,28,03,00,5.80
2015,08,28,03,01,6.70
2015,08,28,03,02,7.60
2015,08,28,03,03,6.70
2015,08,28,03,04,8.60
2015,08,28,03,05,11.20
2015,08,28,03,06,7.80
2015,08,28,03,07,6.40
2015,08,28,03,08,8.80
2015,08,28,03,09,8.40
2015,08,28,03,10,7.40
2015,08,28,03,11,6.50
2015,08,28,03,12,7.90
2015,08,28,03,13,6.10
2015,08,28,03,14,2.60
2015,08,28,03,15,2.00
2015,08,28,03,16,2.40
2015,08,28,03,17,4.30
2015,08,28,03,18,4.80
2015,08,28,03,19,1.30
2015,08,28,03,20,0.30
2015,08,28,03,21,0.10
2015,08,28,03,22,0.00
2015,08,28,03,23,0.00
2015,08,28,03,24,0.00
2015,08,28,03,25,0.00
2015,08,28,03,26,0.00
2015,08,28,03,27,0.00
2015,08,28,03,28,0.00
2015,08,28,03,29,0.00
2015,08,28,03,30,0.60
2015,08,28,03,31,0.00
2015,08,28,03,32,0.00
2015,08,28,03,33,1.20
2015,08,28,03,34,0.20
2015,08,28,03,35,0.10
2015,08,28,03,36,0.10
2015,08,28,03,37,0.00
2015,08,28,03,38,0.00
2015,08,28,03,39,0.00
2015,08,28,03,40,0.20
2015,08,28,03,41,0.10
2015,08,28,03,42,0.00
2015,08,28,03,43,0.00
2015,08,28,03,44,0.00
2015,08,28,03,45,0.00
2015,08,28,03,46,0.80
2015,08,28,03,47,0.10
2015,08,28,03,48,0.00
2015,08,28,03,49,0.00
2015,08,28,03,50,0.00
2015,08,28,03,51,0.00
2015,08,28,03,52,0.00
2015,08,28,03,53,0.00
2015,08,28,03,54,0.00
2015,08,28,03,55,0.00
2015,08,28,03,56,0.00
2015,08,28,03,57,0.90
2015,08,28,03,58,0.10
2015,08,28,03,59,0.00
2015,08,28,04,00,0.00
2015,08,28,04,01,0.00
2015,08,28,04,02,0.00
2015,08,28,04,03,0.20
2015,08,28,04,04,0.10
2015,08,28,04,05,0.00
2015,08,28,04,06,0.00
2015,08,28,04,07,0.00
2015,08,28,04,08,0.00
2015,08,28,04,09,0.00
2015,08,28,04,10,0.00
2015,08,28,04,11,0.00
2015,08,28,04,12,0.00
2015,08,28,04,13,0.00
2015,08,28,04,14,0.00
2015,08,28,04,15,0.00
2015,08,28,04,16,0.00
2015,08,28,04,17,0.50
2015,08,28,04,18,0.10
2015,08,28,04,19,0.00
2015,08,28,04,20,0.90
2015,08,28,04,21,1.80
2015,08,28,04,22,2.30
2015,08,28,04,23,1.80
2015,08,28,04,24,1.00
2015,08,28,04,25,1.40
2015,08,28,04,26,0.90
2015,08,28,04,27,1.60
2015,08,28,04,28,1.50
2015,08,28,04,29,0.20
2015,08,28,04,30,0.60
2015,08,28,04,31,0.60
2015,08,28,04,32,0.00
2015,08,28,04,33,0.00
2015,08,28,04,34,0.00
2015,08,28,04,35,0.00
2015,08,28,04,36,0.00
2015,08,28,04,37,0.00
2015,08,28,04,38,0.30
2015,08,28,04,39,0.20
2015,08,28,04,40,0.60
2015,08,28,04,41,0.60
2015,08,28,04,42,2.80
2015,08,28,04,43,4.20
2015,08,28,04,44,5.10
2015,08,28,04,45,5.30
2015,08,28,04,46,4.40
2015,08,28,04,47,3.60
2015,08,28,04,48,2.60
2015,08,28,04,49,1.80
2015,08,28,04,50,1.80
2015,08,28,04,51,2.80
2015,08,28,04,52,3.40
2015,08,28,04,53,2.20
2015,08,28,04,54,0.50
2015,08,28,04,55,0.10
2015,08,28,04,56,0.10
2015,08,28,04,57,2.30
2015,08,28,04,58,2.30
2015,08,28,04,59,0.90
2015,08,28,05,00,1.80
2015,08,28,05,01,1.60
2015,08,28,05,02,1.00
2015,08,28,05,03,1.50
2015,08,28,05,04,2.40
2015,08,28,05,05,3.00
2015,08,28,05,06,0.70
2015,08,28,05,07,2.90
2015,08,28,05,08,3.10
2015,08,28,05,09,2.20
2015,08,28,05,10,0.60
2015,08,28,05,11,2.60
2015,08,28,05,12,3.00
2015,08,28,05,13,3.40
2015,08,28,05,14,2.40
2015,08,28,05,15,2.60
2015,08,28,05,16,2.70
2015,08,28,05,17,0.50
2015,08,28,05,18,0.00
2015,08,28,05,19,0.00
2015,08,28,05,20,0.00
2015,08,28,05,21,0.00
2015,08,28,05,22,0.30
2015,08,28,05,23,2.50
2015,08,28,05,24,2.50
2015,08,28,05,25,2.60
2015,08,28,05,26,2.20
2015,08,28,05,27,3.00
2015,08,28,05,28,1.80
2015,08,28,05,29,1.70
2015,08,28,05,30,1.40
2015,08,28,05,31,0.10
2015,08,28,05,32,0.40
2015,08,28,05,33,1.40
2015,08,28,05,34,0.10
2015,08,28,05,35,0.40
2015,08,28,05,36,1.00
2015,08,28,05,37,2.00
2015,08,28,05,38,3.10
2015,08,28,05,39,3.80
2015,08,28,05,40,3.10
2015,08,28,05,41,4.20
2015,08,28,05,42,3.90
2015,08,28,05,43,3.00
2015,08,28,05,44,3.70
2015,08,28,05,45,2.50
2015,08,28,05,46,3.00
2015,08,28,05,47,2.00
2015,08,28,05,48,0.70
2015,08,28,05,49,0.40
2015,08,28,05,50,0.10
2015,08,28,05,51,0.10
2015,08,28,05,52,1.00
2015,08,28,05,53,0.70
2015,08,28,05,54,0.90
2015,08,28,05,55,0.10
2015,08,28,05,56,0.00
2015,08,28,05,57,0.00
2015,08,28,05,58,0.00
2015,08,28,05,59,0.60
2015,08,28,06,00,1.10
2015,08,28,06,01,1.70
2015,08,28,06,02,1.10
2015,08,28,06,03,1.10
2015,08,28,06,04,3.70
2015,08,28,06,05,1.70
2015,08,28,06,06,0.20
2015,08,28,06,07,0.00
2015,08,28,06,08,0.00
2015,08,28,06,09,0.00
2015,08,28,06,10,0.00
2015,08,28,06,11,0.00
2015,08,28,06,12,0.00
2015,08,28,06,13,0.00
2015,08,28,06,14,0.00
2015,08,28,06,15,0.00
2015,08,28,06,16,0.40
2015,08,28,06,17,2.30
2015,08,28,06,18,1.00
2015,08,28,06,19,0.20
2015,08,28,06,20,0.20
2015,08,28,06,21,1.20
2015,08,28,06,22,0.10
2015,08,28,06,23,0.00
2015,08,28,06,24,0.00
2015,08,28,06,25,0.00
2015,08,28,06,26,0.00
2015,08,28,06,27,0.00
2015,08,28,06,28,0.00
2015,08,28,06,29,0.00
2015,08,28,06,30,0.40
2015,08,28,06,31,1.20
2015,08,28,06,32,1.30
2015,08,28,06,33,0.80
2015,08,28,06,34,0.00
2015,08,28,06,35,0.10
2015,08,28,06,36,0.10
2015,08,28,06,37,0.00
2015,08,28,06,38,0.00
2015,08,28,06,39,0.00
2015,08,28,06,40,0.00
2015,08,28,06,41,0.00
2015,08,28,06,42,0.10
2015,08,28,06,43,0.70
2015,08,28,06,44,0.40
2015,08,28,06,45,0.00
2015,08,28,06,46,0.00
2015,08,28,06,47,0.00
2015,08,28,06,48,0.10
2015,08,28,06,49,0.00
2015,08,28,06,50,0.10
2015,08,28,06,51,1.20
2015,08,28,06,52,0.90
2015,08,28,06,53,0.10
2015,08,28,06,54,0.00
2015,08,28,06,55,0.00
2015,08,28,06,56,0.00
2015,08,28,06,57,0.00
2015,08,28,06,58,0.00
2015,08,28,06,59,0.00
2015,08,28,07,00,0.00
2015,08,28,07,01,0.00
2015,08,28,07,02,0.00
2015,08,28,07,03,0.00
2015,08,28,07,04,0.00
2015,08,28,07,05,0.00
2015,08,28,07,06,0.10
2015,08,28,07,07,0.70
2015,08,28,07,08,2.60
2015,08,28,07,09,2.30
2015,08,28,07,10,2.70
2015,08,28,07,11,0.70
2015,08,28,07,12,0.00
2015,08,28,07,13,0.00
2015,08,28,07,14,0.20
2015,08,28,07,15,0.10
2015,08,28,07,16,0.00
2015,08,28,07,17,0.00
2015,08,28,07,18,0.40
2015,08,28,07,19,0.00
2015,08,28,07,20,0.00
2015,08,28,07,21,0.00
2015,08,28,07,22,0.00
2015,08,28,07,23,0.00
2015,08,28,07,24,0.00
2015,08,28,07,25,0.10
2015,08,28,07,26,0.50
2015,08,28,07,27,0.40
2015,08,28,07,28,0.50
2015,08,28,07,29,0.00
2015,08,28,07,30,0.10
2015,08,28,07,31,0.20
2015,08,28,07,32,0.20
2015,08,28,07,33,0.00
2015,08,28,07,34,0.00
2015,08,28,07,35,0.00
2015,08,28,07,36,0.10
2015,08,28,07,37,0.60
2015,08,28,07,38,1.10
2015,08,28,07,39,1.20
2015,08,28,07,40,2.00
2015,08,28,07,41,1.90
2015,08,28,07,42,2.10
2015,08,28,07,43,1.30
2015,08,28,07,44,0.40
2015,08,28,07,45,0.00
2015,08,28,07,46,0.00
2015,08,28,07,47,0.10
2015,08,28,07,48,1.00
2015,08,28,07,49,2.60
2015,08,28,07,50,1.90
2015,08,28,07,51,1.40
2015,08,28,07,52,0.10
2015,08,28,07,53,0.00
2015,08,28,07,54,0.10
2015,08,28,07,55,0.00
2015,08,28,07,56,0.00
2015,08,28,07,57,0.00
2015,08,28,07,58,0.00
2015,08,28,07,59,0.00
2015,08,28,08,00,0.00
2015,08,28,08,01,0.00
2015,08,28,08,02,0.00
2015,08,28,08,03,0.00
2015,08,28,08,04,0.00
2015,08,28,08,05,0.00
2015,08,28,08,06,0.00
2015,08,28,08,07,0.00
2015,08,28,08,08,0.00
2015,08,28,08,09,0.00
2015,08,28,08,10,0.00
2015,08,28,08,11,0.00
2015,08,28,08,12,0.00
2015,08,28,08,13,0.00
2015,08,28,08,14,0.00
2015,08,28,08,15,0.00
2015,08,28,08,16,0.00
2015,08,28,08,17,0.00
2015,08,28,08,18,0.00
2015,08,28,08,19,0.00
2015,08,28,08,20,0.00
2015,08,28,08,21,0.00
2015,08,28,08,22,0.00
2015,08,28,08,23,0.00
2015,08,28,08,24,0.60
2015,08,28,08,25,1.90
2015,08,28,08,26,0.10
2015,08,28,08,27,0.00
2015,08,28,08,28,0.00
2015,08,28,08,29,0.00
2015,08,28,08,30,0.00
2015,08,28,08,31,0.10
2015,08,28,08,32,0.10
2015,08,28,08,33,1.50
2015,08,28,08,34,1.60
2015,08,28,08,35,1.30
2015,08,28,08,36,0.10
2015,08,28,08,37,0.00
2015,08,28,08,38,0.20
2015,08,28,08,39,2.40
2015,08,28,08,40,1.50
2015,08,28,08,41,3.80
2015,08,28,08,42,4.50
2015,08,28,08,43,3.80
2015,08,28,08,44,6.20
2015,08,28,08,45,4.00
2015,08,28,08,46,2.60
2015,08,28,08,47,2.10
2015,08,28,08,48,2.50
2015,08,28,08,49,3.00
2015,08,28,08,50,1.80
2015,08,28,08,51,3.40
2015,08,28,08,52,3.40
2015,08,28,08,53,3.10
2015,08,28,08,54,2.20
2015,08,28,08,55,2.90
2015,08,28,08,56,2.20
2015,08,28,08,57,1.70
2015,08,28,08,58,3.90
2015,08,28,08,59,4.80
2015,08,28,09,00,3.10
2015,08,28,09,01,3.10
2015,08,28,09,02,2.90
2015,08,28,09,03,3.60
2015,08,28,09,04,3.60
2015,08,28,09,05,3.30
2015,08,28,09,06,2.30
2015,08,28,09,07,3.30
2015,08,28,09,08,3.10
2015,08,28,09,09,3.50
2015,08,28,09,10,4.10
2015,08,28,09,11,3.40
2015,08,28,09,12,3.40
2015,08,28,09,13,3.30
2015,08,28,09,14,3.30
2015,08,28,09,15,4.80
2015,08,28,09,16,4.70
2015,08,28,09,17,6.00
2015,08,28,09,18,7.00
2015,08,28,09,19,9.70
2015,08,28,09,20,6.30
2015,08,28,09,21,7.30
2015,08,28,09,22,10.00
2015,08,28,09,23,9.70
2015,08,28,09,24,12.00
2015,08,28,09,25,4.00
2015,08,28,09,26,8.10
2015,08,28,09,27,10.80
2015,08,28,09,28,12.00
2015,08,28,09,29,6.30
2015,08,28,09,30,6.80
2015,08,28,09,31,8.70
2015,08,28,09,32,10.90
2015,08,28,09,33,14.60
2015,08,28,09,34,20.80
2015,08,28,09,35,18.50
2015,08,28,09,36,17.60
2015,08,28,09,37,17.40
2015,08,28,09,38,19.90
2015,08,28,09,39,13.80
2015,08,28,09,40,12.70
2015,08,28,09,41,22.20
2015,08,28,09,42,16.50
2015,08,28,09,43,15.00
2015,08,28,09,44,18.10
2015,08,28,09,45,17.30
2015,08,28,09,46,16.80
2015,08,28,09,47,14.30
2015,08,28,09,48,14.60
2015,08,28,09,49,12.10
2015,08,28,09,50,17.80
2015,08,28,09,51,22.00
2015,08,28,09,52,18.80
2015,08,28,09,53,19.70
2015,08,28,09,54,15.50
2015,08,28,09,55,19.00
2015,08,28,09,56,19.60
2015,08,28,09,57,21.70
2015,08,28,09,58,19.80
2015,08,28,09,59,18.00
2015,08,28,10,00,18.70
2015,08,28,10,01,23.60
2015,08,28,10,02,19.20
2015,08,28,10,03,20.70
2015,08,28,10,04,22.80
2015,08,28,10,05,21.90
2015,08,28,10,06,19.40
2015,08,28,10,07,16.10
2015,08,28,10,08,21.20
2015,08,28,10,09,15.70
2015,08,28,10,10,19.10
2015,08,28,10,11,21.60
2015,08,28,10,12,17.30
2015,08,28,10,13,19.80
2015,08,28,10,14,19.60
2015,08,28,10,15,16.30
2015,08,28,10,16,20.20
2015,08,28,10,17,15.50
2015,08,28,10,18,20.30
2015,08,28,10,19,17.40
2015,08,28,10,20,17.80
2015,08,28,10,21,16.70
2015,08,28,10,22,19.40
2015,08,28,10,23,15.80
2015,08,28,10,24,14.00
2015,08,28,10,25,20.80
2015,08,28,10,26,21.10
2015,08,28,10,27,16.20
2015,08,28,10,28,16.40
2015,08,28,10,29,16.20
2015,08,28,10,30,22.80
2015,08,28,10,31,20.00
2015,08,28,10,32,13.70
2015,08,28,10,33,15.70
2015,08,28,10,34,15.10
2015,08,28,10,35,17.30
2015,08,28,10,36,20.50
2015,08,28,10,37,23.00
2015,08,28,10,38,21.10
2015,08,28,10,39,19.70
2015,08,28,10,40,18.80
2015,08,28,10,41,21.00
2015,08,28,10,42,22.90
2015,08,28,10,43,26.20
2015,08,28,10,44,20.80
2015,08,28,10,45,21.70
2015,08,28,10,46,18.90
2015,08,28,10,47,19.30
2015,08,28,10,48,18.30
2015,08,28,10,49,17.90
2015,08,28,10,50,13.90
2015,08,28,10,51,18.20
2015,08,28,10,52,19.70
2015,08,28,10,53,15.90
2015,08,28,10,54,20.10
2015,08,28,10,55,15.00
2015,08,28,10,56,17.70
2015,08,28,10,57,20.20
2015,08,28,10,58,19.20
2015,08,28,10,59,19.20
2015,08,28,11,00,16.80
2015,08,28,11,01,18.10
2015,08,28,11,02,23.50
2015,08,28,11,03,17.00
2015,08,28,11,04,14.60
2015,08,28,11,05,20.00
2015,08,28,11,06,17.60
2015,08,28,11,07,20.60
2015,08,28,11,08,18.90
2015,08,28,11,09,16.60
2015,08,28,11,10,15.10
2015,08,28,11,11,14.20
2015,08,28,11,12,13.00
2015,08,28,11,13,12.70
2015,08,28,11,14,10.30
2015,08,28,11,15,15.20
2015,08,28,11,16,13.30
2015,08,28,11,17,16.10
2015,08,28,11,18,17.50
2015,08,28,11,19,13.20
2015,08,28,11,20,12.70
2015,08,28,11,21,13.30
2015,08,28,11,22,19.50
2015,08,28,11,23,19.90
2015,08,28,11,24,18.10
2015,08,28,11,25,15.30
2015,08,28,11,26,17.20
2015,08,28,11,27,14.40
2015,08,28,11,28,15.50
2015,08,28,11,29,14.10
2015,08,28,11,30,19.00
2015,08,28,11,31,18.60
2015,08,28,11,32,16.00
2015,08,28,11,33,12.40
2015,08,28,11,34,14.40
2015,08,28,11,35,7.20
2015,08,28,11,36,8.50
2015,08,28,11,37,4.90
2015,08,28,11,38,14.30
2015,08,28,11,39,12.20
2015,08,28,11,40,12.50
2015,08,28,11,41,11.00
2015,08,28,11,42,9.10
2015,08,28,11,43,9.10
2015,08,28,11,44,10.90
2015,08,28,11,45,13.00
2015,08,28,11,46,12.20
2015,08,28,11,47,14.30
2015,08,28,11,48,9.70
2015,08,28,11,49,5.00
2015,08,28,11,50,7.00
2015,08,28,11,51,6.10
2015,08,28,11,52,6.40
2015,08,28,11,53,6.10
2015,08,28,11,54,5.20
2015,08,28,11,55,6.60
2015,08,28,11,56,8.30
2015,08,28,11,57,8.90
2015,08,28,11,58,9.80
2015,08,28,11,59,12.60
2015,08,28,12,00,13.80
2015,08,28,12,01,11.30
2015,08,28,12,02,9.70
2015,08,28,12,03,6.80
2015,08,28,12,04,10.20
2015,08,28,12,05,5.40
2015,08,28,12,06,7.50
2015,08,28,12,07,6.90
2015,08,28,12,08,6.40
2015,08,28,12,09,7.30
2015,08,28,12,10,5.00
2015,08,28,12,11,7.20
2015,08,28,12,12,7.00
2015,08,28,12,13,9.70
2015,08,28,12,14,4.50
2015,08,28,12,15,3.10
2015,08,28,12,16,5.70
2015,08,28,12,17,6.80
2015,08,28,12,18,10.30
2015,08,28,12,19,8.60
2015,08,28,12,20,7.70
2015,08,28,12,21,4.10
2015,08,28,12,22,7.20
2015,08,28,12,23,7.80
2015,08,28,12,24,6.90
2015,08,28,12,25,5.70
2015,08,28,12,26,7.50
2015,08,28,12,27,5.80
2015,08,28,12,28,7.80
2015,08,28,12,29,7.10
2015,08,28,12,30,8.90
2015,08,28,12,31,8.10
2015,08,28,12,32,10.00
2015,08,28,12,33,14.10
2015,08,28,12,34,13.30
2015,08,28,12,35,11.30
2015,08,28,12,36,10.30
2015,08,28,12,37,12.80
2015,08,28,12,38,15.40
2015,08,28,12,39,12.40
2015,08,28,12,40,11.40
2015,08,28,12,41,7.70
2015,08,28,12,42,11.50
2015,08,28,12,43,14.70
2015,08,28,12,44,8.50
2015,08,28,12,45,8.40
2015,08,28,12,46,8.20
2015,08,28,12,47,8.90
2015,08,28,12,48,9.80
2015,08,28,12,49,9.40
2015,08,28,12,50,11.70
2015,08,28,12,51,13.50
2015,08,28,12,52,12.20
2015,08,28,12,53,9.60
2015,08,28,12,54,8.50
2015,08,28,12,55,9.50
2015,08,28,12,56,9.10
2015,08,28,12,57,9.40
2015,08,28,12,58,8.90
2015,08,28,12,59,9.10
2015,08,28,13,00,10.90
2015,08,28,13,01,10.90
2015,08,28,13,02,13.50
2015,08,28,13,03,10.70
2015,08,28,13,04,9.70
2015,08,28,13,05,9.40
2015,08,28,13,06,8.50
2015,08,28,13,07,8.60
2015,08,28,13,08,11.50
2015,08,28,13,09,9.80
2015,08,28,13,10,9.70
2015,08,28,13,11,10.00
2015,08,28,13,12,8.10
2015,08,28,13,13,8.10
2015,08,28,13,14,6.00
2015,08,28,13,15,6.60
2015,08,28,13,16,4.70
2015,08,28,13,17,6.30
2015,08,28,13,18,6.30
2015,08,28,13,19,6.70
2015,08,28,13,20,10.40
2015,08,28,13,21,9.10
2015,08,28,13,22,7.60
2015,08,28,13,23,8.10
2015,08,28,13,24,7.80
2015,08,28,13,25,7.50
2015,08,28,13,26,9.20
2015,08,28,13,27,11.00
2015,08,28,13,28,8.90
2015,08,28,13,29,5.80
2015,08,28,13,30,6.10
2015,08,28,13,31,4.70
2015,08,28,13,32,5.80
2015,08,28,13,33,11.70
2015,08,28,13,34,12.70
2015,08,28,13,35,13.90
2015,08,28,13,36,13.90
2015,08,28,13,37,13.70
2015,08,28,13,38,18.80
2015,08,28,13,39,13.70
2015,08,28,13,40,17.50
2015,08,28,13,41,16.80
2015,08,28,13,42,14.90
2015,08,28,13,43,15.80
2015,08,28,13,44,13.90
2015,08,28,13,45,15.80
2015,08,28,13,46,9.60
2015,08,28,13,47,10.80
2015,08,28,13,48,12.50
2015,08,28,13,49,15.80
2015,08,28,13,50,11.10
2015,08,28,13,51,13.40
2015,08,28,13,52,13.30
2015,08,28,13,53,11.70
2015,08,28,13,54,16.10
2015,08,28,13,55,14.90
2015,08,28,13,56,13.20
2015,08,28,13,57,17.90
2015,08,28,13,58,13.80
2015,08,28,13,59,13.70
2015,08,28,14,00,14.00
2015,08,28,14,01,16.70
2015,08,28,14,02,13.70
2015,08,28,14,03,17.60
2015,08,28,14,04,14.30
2015,08,28,14,05,11.70
2015,08,28,14,06,10.00
2015,08,28,14,07,12.10
2015,08,28,14,08,11.10
2015,08,28,14,09,10.60
2015,08,28,14,10,9.60
2015,08,28,14,11,13.10
2015,08,28,14,12,14.90
2015,08,28,14,13,11.90
2015,08,28,14,14,9.80
2015,08,28,14,15,14.20
2015,08,28,14,16,11.10
2015,08,28,14,17,9.80
2015,08,28,14,18,11.80
2015,08,28,14,19,15.10
2015,08,28,14,20,18.40
2015,08,28,14,21,14.60
2015,08,28,14,22,11.30
2015,08,28,14,23,9.60
2015,08,28,14,24,11.00
2015,08,28,14,25,11.90
2015,08,28,14,26,13.30
2015,08,28,14,27,10.80
2015,08,28,14,28,12.60
2015,08,28,14,29,17.80
2015,08,28,14,30,13.70
2015,08,28,14,31,11.90
2015,08,28,14,32,10.80
2015,08,28,14,33,11.90
2015,08,28,14,34,12.50
2015,08,28,14,35,17.90
2015,08,28,14,36,16.20
2015,08,28,14,37,12.10
2015,08,28,14,38,11.10
2015,08,28,14,39,15.10
2015,08,28,14,40,18.30
2015,08,28,14,41,14.40
2015,08,28,14,42,17.20
2015,08,28,14,43,14.60
2015,08,28,14,44,15.20
2015,08,28,14,45,17.30
2015,08,28,14,46,17.60
2015,08,28,14,47,18.20
2015,08,28,14,48,18.20
2015,08,28,14,49,12.70
2015,08,28,14,50,17.20
2015,08,28,14,51,13.90
2015,08,28,14,52,13.00
2015,08,28,14,53,12.40
2015,08,28,14,54,17.60
2015,08,28,14,55,15.70
2015,08,28,14,56,14.00
2015,08,28,14,57,15.20
2015,08,28,14,58,11.40
2015,08,28,14,59,11.90
2015,08,28,15,00,12.40
2015,08,28,15,01,11.70
2015,08,28,15,02,11.30
2015,08,28,15,03,13.70
2015,08,28,15,04,15.00
2015,08,28,15,05,11.70
2015,08,28,15,06,12.10
2015,08,28,15,07,10.10
2015,08,28,15,08,11.90
2015,08,28,15,09,15.50
2015,08,28,15,10,15.90
2015,08,28,15,11,20.30
2015,08,28,15,12,16.60
2015,08,28,15,13,10.50
2015,08,28,15,14,11.60
2015,08,28,15,15,8.90
2015,08,28,15,16,10.60
2015,08,28,15,17,10.70
2015,08,28,15,18,11.60
2015,08,28,15,19,6.40
2015,08,28,15,20,10.20
2015,08,28,15,21,11.90
2015,08,28,15,22,11.30
2015,08,28,15,23,12.60
2015,08,28,15,24,10.20
2015,08,28,15,25,8.60
2015,08,28,15,26,14.60
2015,08,28,15,27,19.20
2015,08,28,15,28,16.20
2015,08,28,15,29,13.00
2015,08,28,15,30,13.10
2015,08,28,15,31,12.90
2015,08,28,15,32,15.70
2015,08,28,15,33,17.50
2015,08,28,15,34,14.00
2015,08,28,15,35,14.60
2015,08,28,15,36,16.30
2015,08,28,15,37,16.20
2015,08,28,15,38,15.40
2015,08,28,15,39,15.30
2015,08,28,15,40,14.00
2015,08,28,15,41,15.80
2015,08,28,15,42,17.10
2015,08,28,15,43,16.30
2015,08,28,15,44,11.30
2015,08,28,15,45,18.20
2015,08,28,15,46,16.40
2015,08,28,15,47,12.40
2015,08,28,15,48,14.00
2015,08,28,15,49,13.00
2015,08,28,15,50,15.40
2015,08,28,15,51,14.90
2015,08,28,15,52,15.70
2015,08,28,15,53,17.00
2015,08,28,15,54,21.00
2015,08,28,15,55,18.90
2015,08,28,15,56,14.10
2015,08,28,15,57,16.80
2015,08,28,15,58,17.70
2015,08,28,15,59,15.00
2015,08,28,16,00,13.90
2015,08,28,16,01,9.80
2015,08,28,16,02,12.50
2015,08,28,16,03,16.80
2015,08,28,16,04,14.90
2015,08,28,16,05,14.90
2015,08,28,16,06,14.00
2015,08,28,16,07,15.30
2015,08,28,16,08,15.70
2015,08,28,16,09,13.40
2015,08,28,16,10,13.30
2015,08,28,16,11,16.20
2015,08,28,16,12,11.90
2015,08,28,16,13,11.40
2015,08,28,16,14,15.60
2015,08,28,16,15,17.60
2015,08,28,16,16,13.00
2015,08,28,16,17,11.60
2015,08,28,16,18,10.70
2015,08,28,16,19,16.80
2015,08,28,16,20,12.20
2015,08,28,16,21,18.90
2015,08,28,16,22,13.70
2015,08,28,16,23,12.10
2015,08,28,16,24,17.00
2015,08,28,16,25,16.80
2015,08,28,16,26,15.50
2015,08,28,16,27,15.40
2015,08,28,16,28,15.20
2015,08,28,16,29,13.20
2015,08,28,16,30,9.70
2015,08,28,16,31,13.80
2015,08,28,16,32,12.70
2015,08,28,16,33,15.30
2015,08,28,16,34,12.20
2015,08,28,16,35,11.30
2015,08,28,16,36,13.10
2015,08,28,16,37,10.10
2015,08,28,16,38,9.30
2015,08,28,16,39,10.80
2015,08,28,16,40,13.00
2015,08,28,16,41,10.00
2015,08,28,16,42,12.80
2015,08,28,16,43,12.10
2015,08,28,16,44,13.50
2015,08,28,16,45,17.70
2015,08,28,16,46,11.80
2015,08,28,16,47,13.20
2015,08,28,16,48,14.00
2015,08,28,16,49,12.10
2015,08,28,16,50,16.00
2015,08,28,16,51,16.20
2015,08,28,16,52,12.80
2015,08,28,16,53,12.90
2015,08,28,16,54,9.50
2015,08,28,16,55,12.30
2015,08,28,16,56,11.70
2015,08,28,16,57,12.00
2015,08,28,16,58,14.80
2015,08,28,16,59,13.20
2015,08,28,17,00,14.10
2015,08,28,17,01,11.70
2015,08,28,17,02,11.30
2015,08,28,17,03,11.50
2015,08,28,17,04,15.90
2015,08,28,17,05,14.30
2015,08,28,17,06,9.40
2015,08,28,17,07,12.70
2015,08,28,17,08,12.00
2015,08,28,17,09,12.20
2015,08,28,17,10,9.90
2015,08,28,17,11,10.80
2015,08,28,17,12,14.30
2015,08,28,17,13,13.50
2015,08,28,17,14,10.90
2015,08,28,17,15,12.90
2015,08,28,17,16,13.00
2015,08,28,17,17,13.20
2015,08,28,17,18,16.00
2015,08,28,17,19,11.30
2015,08,28,17,20,9.10
2015,08,28,17,21,12.60
2015,08,28,17,22,13.30
2015,08,28,17,23,8.40
2015,08,28,17,24,10.10
2015,08,28,17,25,13.20
2015,08,28,17,26,10.00
2015,08,28,17,27,8.00
2015,08,28,17,28,11.80
2015,08,28,17,29,12.50
2015,08,28,17,30,10.60
2015,08,28,17,31,11.30
2015,08,28,17,32,11.60
2015,08,28,17,33,12.00
2015,08,28,17,34,16.30
2015,08,28,17,35,13.30
2015,08,28,17,36,12.70
2015,08,28,17,37,15.40
2015,08,28,17,38,11.10
2015,08,28,17,39,11.80
2015,08,28,17,40,9.50
2015,08,28,17,41,17.60
2015,08,28,17,42,15.20
2015,08,28,17,43,11.40
2015,08,28,17,44,13.80
2015,08,28,17,45,14.60
2015,08,28,17,46,16.40
2015,08,28,17,47,14.40